Location: Bidwell Hollow
(37.7387°N, 90.1707°W)
Time: 12:49:10
(UTC+00:00)

Altair - All Passes

Search period start: 13 May 2026 00:00
Search period end: 23 May 2026 00:00
Orbit: 1501 x 1682 km, 47.2° (Epoch: 13 May)

Date Brightness Start Highest point End Pass type
(mag) Time Alt. Az. Time Alt. Az. Time Alt. Az.
13 May - 09:32:37 10° S 09:41:08 35° SE 09:49:53 10° ENE visible
13 May - 11:35:18 10° WSW 11:45:17 85° NNW 11:55:32 10° ENE daylight
13 May - 13:41:24 10° W 13:51:11 51° N 14:01:03 10° ENE daylight
13 May - 15:47:39 10° WNW 15:57:41 58° NNE 16:07:35 10° E daylight
13 May - 17:52:54 10° WNW 18:03:01 72° SW 18:12:50 10° SE daylight
13 May - 19:59:44 10° W 20:06:31 21° SW 20:13:13 10° SSW daylight
14 May - 09:07:45 10° S 09:15:59 32° SE 09:24:24 10° ENE visible
14 May - 11:10:03 10° SW 11:19:59 90° NW 11:30:13 10° ENE daylight
14 May - 13:16:00 10° W 13:25:47 52° N 13:35:40 10° ENE daylight
14 May - 15:22:19 10° WNW 15:32:18 56° NNE 15:42:12 10° E daylight
14 May - 17:27:35 10° WNW 17:37:45 76° SW 17:47:40 10° SE daylight
14 May - 19:34:05 10° WNW 19:41:24 23° SW 19:48:36 10° S daylight
15 May - 08:42:58 10° S 08:50:50 29° SE 08:58:54 10° ENE visible
15 May - 10:44:49 10° SW 10:54:43 86° SE 11:04:55 10° ENE daylight
15 May - 12:50:36 10° W 13:00:23 53° NNW 13:10:19 10° ENE daylight
15 May - 14:56:59 10° WNW 15:06:55 55° NNE 15:16:48 10° E daylight
15 May - 17:02:16 10° WNW 17:12:30 81° SW 17:22:28 10° SE daylight
15 May - 19:08:30 10° WNW 19:16:16 26° SW 19:23:55 10° S daylight
16 May - 08:18:13 10° S 08:25:42 26° SE 08:33:22 10° ENE visible
16 May - 10:19:36 10° SW 10:29:26 81° SE 10:39:36 10° ENE visible
16 May - 12:25:12 10° W 12:34:59 55° NNW 12:44:57 10° ENE daylight
16 May - 14:31:38 10° WNW 14:41:31 53° NNE 14:51:24 10° E daylight
16 May - 16:36:58 10° WNW 16:47:12 86° SW 16:57:15 10° SE daylight
16 May - 18:42:57 10° WNW 18:51:08 29° SW 18:59:09 10° S daylight
17 May - 07:53:32 10° S 08:00:34 23° SE 08:07:46 10° ENE visible
17 May - 09:54:25 10° SW 10:04:11 76° SE 10:14:18 10° ENE visible
17 May - 11:59:49 10° W 12:09:36 56° NNW 12:19:36 10° ENE daylight
17 May - 14:06:17 10° WNW 14:16:08 52° N 14:25:59 10° E daylight
17 May - 16:11:41 10° WNW 16:21:56 89° NNE 16:32:00 10° SE daylight
17 May - 18:17:27 10° WNW 18:25:59 32° SW 18:34:21 10° S daylight
18 May - 07:28:58 10° SSE 07:35:28 20° SE 07:42:06 10° E visible
18 May - 09:29:15 10° SW 09:38:56 71° SE 09:48:58 10° ENE visible
18 May - 11:34:27 10° W 11:44:14 58° NNW 11:54:15 10° ENE daylight
18 May - 13:40:55 10° WNW 13:50:43 51° N 14:00:34 10° E daylight
18 May - 15:46:23 10° WNW 15:56:38 85° NNE 16:06:44 10° ESE daylight
18 May - 17:52:00 10° WNW 18:00:49 35° SW 18:09:29 10° SSE daylight
19 May - 07:04:29 10° SSE 07:10:22 18° ESE 07:16:21 10° E visible
19 May - 09:04:07 10° SW 09:13:42 66° SE 09:23:39 10° ENE visible
19 May - 11:09:05 10° W 11:18:52 60° NNW 11:28:54 10° ENE daylight
19 May - 13:15:34 10° WNW 13:25:19 50° N 13:35:09 10° E daylight
19 May - 15:21:05 10° WNW 15:31:20 81° NNE 15:41:27 10° ESE daylight
19 May - 17:26:34 10° WNW 17:35:39 39° SW 17:44:34 10° SSE daylight
20 May - 06:40:09 10° SSE 06:45:16 16° ESE 06:50:27 10° E visible
20 May - 08:39:01 10° SW 08:48:29 62° SE 08:58:19 10° ENE visible
20 May - 10:43:43 10° W 10:53:30 62° NNW 11:03:34 10° ENE daylight
20 May - 12:50:12 10° WNW 12:59:54 50° N 13:09:44 10° ENE daylight
20 May - 14:55:48 10° WNW 15:06:01 77° NNE 15:16:09 10° ESE daylight
20 May - 17:01:10 10° WNW 17:10:28 42° SW 17:19:37 10° SSE daylight
21 May - 06:16:02 10° SSE 06:20:10 13° ESE 06:24:21 10° E visible
21 May - 08:13:56 10° SSW 08:23:17 57° SE 08:32:59 10° ENE visible
21 May - 10:18:23 10° WSW 10:28:09 65° NNW 10:38:14 10° ENE visible
21 May - 12:24:50 10° WNW 12:34:30 50° N 12:44:19 10° ENE daylight
21 May - 14:30:30 10° WNW 14:40:41 73° NNE 14:50:49 10° ESE daylight
21 May - 16:35:47 10° WNW 16:45:16 46° SW 16:54:37 10° SSE daylight
22 May - 05:52:24 10° SE 05:55:05 11° ESE 05:57:47 10° ESE visible
22 May - 07:48:54 10° SSW 07:58:05 52° SE 08:07:38 10° ENE visible
22 May - 09:53:03 10° WSW 10:02:48 68° NNW 10:12:55 10° ENE visible
22 May - 11:59:27 10° WNW 12:09:06 49° N 12:18:54 10° ENE daylight
22 May - 14:05:12 10° WNW 14:15:20 70° NNE 14:25:29 10° ESE daylight
22 May - 16:10:26 10° WNW 16:20:04 50° SW 16:29:36 10° SSE daylight
22 May - 18:20:55 10° WSW 18:23:09 11° WSW 18:25:21 10° SW daylight
